User: anonymous   Login
Location: Chateh
(58.6667°N, 118.6000°W)
Time: 21:41:19
(UTC+00:00)
Language:

NOAA 17 DEB - Orbit

View from above orbital plane
View from above orbital plane
View from above satellite
View from above satellite

Ground track
Ground track

The orbit data is extracted from the following two-line orbital elements,

1 48753U 02032CN  24146.81028464  .00009081  00000-0  31074-2 0  9999
2 48753  98.7194 101.4306 0029506 298.1552  61.6653 14.36231698164568
Epoch (UTC): 25 May 2024 19:26:48
Eccentricity: 0.0029506
inclination: 98.7194°
perigee height: 750 km
apogee height: 792 km
right ascension of ascending node: 101.4306°
argument of perigee: 298.1552°
revolutions per day: 14.36231698
mean anomaly at epoch: 61.6653°
orbit number at epoch: 16456

The dashed part of the orbit path shows where the satellite is in the earth's shadow,  

DLR